Location: Владивосток
(43.1151°N, 131.8856°E)
Time: 11:55:40
(UTC+10:00)

NOAA 19 - Pass Details

Date: 03 July 2022
Orbit: 840 x 861 km, 99.1° (Epoch: 17 August)

Event Time Altitude Azimuth Distance (km) Brightness Sun altitude
Rises 22:03:45 0° 220° (SW) 3,417 8.3 -10.4°
Reaches altitude 10° 22:07:55 10° 250° (WSW) 2,484 8.0 -11.0°
Maximum altitude 22:09:53 12° 272° (W) 2,351 8.2 -11.2°
Drops below altitude 10° 22:11:52 10° 293° (WNW) 2,485 8.8 -11.5°
Sets 22:16:03 0° 324° (NW) 3,423 10.4 -12.0°
